SCP
0 0 0 0 0 0 0 0 0 0 0 0 0 0 0 0 0 0 0 0 0 0 0 0 0 0 0 0 0 0 0 0 0 0 0 0 0 0
0 0 0 0 0 0 0 0 0 0 0 0 0 0 0 0 0 0 0 0 0 0 0 0 0 0 0 0 0 0 0 0 0 0 0 0 0 0
0 0 0 0 0 0 0 0 0 0 0 0 0 0 0 0 0 0 0 0 0 0 0 0 0 0 0 0 0 0 0 0 0 0 0 0 0 0
0 0 0 0 0 0 0 0 0 0 0 0 0 -0 0 0 0 0 0 0 0 0 0 0 0 0 0 0 0 0 0 0 0 0 0 0 0 0
0 0 0 0 0 0 0 0 0 0 0 0 0 -0 -0 0 0 0 0 0 0 0 0 0 0 0 0 0 0 0 0 0 0 0 0 0 0 0
0 0 0 0 0 0 0 0 0 0 0 0 0 0 0 0 0 0 0 0 0 0 0 0 0 0 0 0 0 0 0 0 0 0 0 0 0 0
0 0 0 0 -0 0 0 0 0 0 0 0 0 0 0 0 0 0 0 0 0 0 0 0 0 0 0 0 0 0 0 0 0 0 0 0 0 0
0 0 0 -0 -0 0 0 0 0 0 0 0 0 0 0 0 0 0 0 0 0 0 0 0 0 0 0 0 0 0 0 0 0 0 0 0 0 0
0 0 0 0 0 0 0 0 0 0 0 0 0 0 0 0 0 0 0 0 0 0 0 0 0 0 0 0 0 0 0 0 0 0 0 0 0 0
0 0 0 0 0 0 0 0 0 0 0 0 0 0 0 0 0 0 0 0 0 0 0 0 0 0 0 0 0 0 0 0 0 0 0 0 0 0
0 0 0 0 0 0 0 0 0 0 0 0 0 0 0 0 0 0 0 0 0 0 0 0 0 0 0 0 0 0 0 0 0 0 0 0 0 0
0 0 0 0 0 0 0 0 0 0 0 0 0 0 0 0 0 0 0 0 0 0 0 0 0 0 0 0 0 0 0 0 0 0 0 0 0 0
0 0 0 0 0 0 0 0 0 0 0 0 0 0 0 0 0 0 0 0 0 0 0 0 0 0 0 0 0 0 0 0 0 0 0 0 0 0
0 0 0 0 0 0 0 0 0 0 0 0 0 0 0 0 0 0 0 0 0 0 0 0 0 0 0 0 0 0 0 0 0 0 0 0 0 0
0 0 0 0 0 0 0 0 0 0 0 0 0 0 0 0 0 0 0 0 0 0 0 0 0 0 0 0 0 0 0 0 0 0 0 0 0 0
0 0 0 0 0 0 0 0 0 0 0 0 0 0 0 0 0 0 0 0 0 0 0 0 0 0 0 0 0 0 0 0 0 0 0 0 0 0
0 0 0 0 0 0 0 0 0 0 0 0 0 0 0 0 0 0 0 0 0 0 0 0 0 0 0 0 0 0 0 0 0 0 0 0 0 0
0 0 0 0 0 0 0 0 0 0 0 0 0 0 0 0 0 0 0 0 0 0 0 0 0 0 0 0 0 0 0 0 0 0 0 0 0 0
0 0 0 0 0 0 0 0 0 0 0 0 0 0 0 0 0 0 0 0 0 0 0 0 0 0 0 0 0 0 0 0 0 0 0 0 0 0
0 0 0 0 0 0 0 0 0 0 0 0 0 0 0 0 0 0 0 0 0 0 0 0 0 0 0 0 0 0 0 0 0 0 0 0 0 0
0 0 0 0 0 0 0 0 0 0 0 0 0 0 0 0 0 0 0 0 0 0 0 0 0 0 0 0 0 0 0 0 0 0 0 0 0 0
0 0 0 0 0 0 0 0 0 0 0 0 0 0 0 0 0 0 0 0 0 0 0 0 0 0 0 0 0 0 0 0 0 0 0 0 0 0
0 0 0 0 0 0 0 0 0 0 0 0 0 0 0 0 0 0 0 0 0 0 0 0 0 0 0 0 0 0 0 0 0 0 0 0 0 0
Wind_Speed
9 10 9 7 7 7 6 6 6 7 7 6 4 4 4 4 4 5 5 6 7 8 8 8 7 6 5 5 5 6 6 5 6 6 7 7 7 7
8 10 10 8 7 7 7 7 7 8 8 5 5 4 4 4 5 6 6 6 8 9 9 8 8 7 7 6 6 5 5 6 6 7 7 7 7 7
9 10 10 10 7 7 7 7 8 8 9 7 5 5 6 6 5 5 5 6 6 9 9 8 8 8 8 8 7 6 6 6 7 7 8 8 8 7
10 10 10 8 10 8 7 8 8 8 8 9 6 5 7 7 6 6 5 5 6 8 9 9 9 9 9 8 8 7 7 7 7 7 7 8 8 8
10 10 10 10 10 8 9 8 8 7 7 7 7 5 5 5 6 6 6 5 5 6 8 9 10 10 9 9 8 8 8 7 7 7 7 7 8 8
10 10 10 10 10 10 9 9 8 8 8 7 6 6 5 5 5 5 5 5 4 4 5 6 8 10 10 10 9 8 8 8 8 8 7 7 7 7
9 10 10 10 11 10 8 9 9 8 7 7 7 6 6 5 6 5 6 4 4 4 4 5 5 5 6 8 9 9 8 8 8 8 8 8 8 8
9 9 10 10 11 13 13 12 11 10 9 8 8 8 8 7 6 5 5 4 4 3 4 4 3 4 4 5 6 9 9 9 9 9 9 9 8 8
9 8 7 7 10 10 11 12 11 11 11 10 10 9 8 7 6 7 7 6 6 3 4 5 4 5 4 4 7 9 9 9 9 9 8 8 8 8
9 8 8 8 7 8 9 9 9 9 9 9 9 9 8 7 8 8 7 5 4 3 4 4 4 4 3 3 7 9 9 9 8 8 8 8 7 8
8 8 8 8 8 8 8 9 9 8 8 9 9 8 8 9 7 5 5 5 4 4 3 3 3 3 3 3 4 8 8 8 8 8 8 8 8 8
6 7 8 9 8 9 8 8 9 7 6 6 6 6 7 7 8 8 7 6 4 4 3 4 3 2 2 2 3 4 5 6 7 7 7 8 8 6
5 5 5 8 9 9 9 8 8 7 6 6 5 5 5 4 5 5 5 5 6 4 3 3 3 3 3 2 2 3 3 3 4 5 6 8 8 7
5 5 5 7 8 9 8 7 8 7 5 5 5 5 5 4 3 3 3 3 3 4 5 4 3 4 3 3 3 3 3 3 3 3 4 5 7 9
5 6 6 7 7 7 7 7 6 5 5 5 5 5 4 3 3 2 2 2 1 2 3 4 4 4 4 4 3 3 3 3 3 3 3 4 4 4
5 4 5 5 4 5 5 4 4 4 4 4 4 3 2 3 3 3 3 2 2 1 2 3 4 4 4 4 4 4 3 3 3 3 3 3 4 4
3 3 3 2 2 2 2 3 3 3 3 2 2 2 2 2 2 2 2 2 3 3 2 1 1 1 2 3 4 4 3 3 3 3 3 4 4 4
3 2 2 2 2 2 2 2 2 2 2 2 2 2 2 2 2 1 2 2 2 3 2 2 2 2 1 1 2 4 3 2 2 3 3 4 5 3
2 2 2 2 2 2 2 2 3 2 2 2 2 2 2 2 2 2 2 2 2 2 2 2 3 3 4 4 2 2 3 2 2 3 3 4 5 4
1 1 2 2 2 2 2 2 2 2 2 1 1 1 1 2 1 2 2 2 2 2 2 2 2 3 4 3 2 2 3 3 3 3 3 3 4 4
1 2 2 2 2 2 2 2 2 2 2 2 1 1 1 1 1 1 2 2 2 2 2 2 2 1 1 1 1 2 2 2 3 3 3 3 3 3
1 2 2 2 2 2 2 2 2 1 2 2 1 1 1 1 2 2 2 2 1 1 1 1 0 1 1 2 2 2 2 2 2 3 5 5 4 3
2 2 2 2 2 2 2 2 2 2 2 2 1 1 1 1 1 2 2 2 1 1 1 1 1 1 1 1 2 2 2 2 2 2 2 3 5 7
Wind_Direction
241 239 235 235 236 239 241 238 248 255 250 244 239 229 244 247 241 239 244 230 230 228 227 222 214 213 216 216 205 205 209 215 220 223 227 231 235 239
242 241 238 235 233 236 238 238 242 248 253 247 245 253 250 258 245 242 246 237 228 223 220 215 209 209 211 210 203 205 208 215 220 226 230 234 236 238
242 242 242 239 236 236 238 238 241 240 250 258 256 253 245 252 248 244 239 236 230 221 215 214 212 210 209 209 207 211 214 220 226 229 232 235 236 238
242 242 243 239 236 235 236 238 243 240 246 254 255 252 253 252 250 244 245 242 239 220 213 211 211 211 211 211 210 215 217 221 229 234 235 238 236 238
242 241 242 241 238 235 236 238 242 242 243 248 251 252 256 250 251 248 247 244 243 222 216 213 209 210 214 216 215 214 217 219 225 233 238 240 239 240
242 241 242 241 242 240 238 240 239 238 239 240 242 243 248 244 240 238 242 235 237 223 224 220 212 211 213 216 215 214 216 218 224 229 235 238 238 242
244 243 242 243 246 249 244 242 237 234 236 238 239 241 241 231 233 233 240 239 248 228 225 222 216 216 212 207 207 209 214 218 224 230 234 235 237 239
246 246 245 242 244 249 247 247 243 234 235 237 238 237 241 240 244 238 231 227 245 211 218 233 227 225 223 220 204 204 212 219 224 228 232 234 235 238
248 248 247 248 245 247 244 244 244 241 238 238 240 241 242 237 239 241 235 232 240 224 216 235 228 233 227 218 203 206 212 217 221 226 231 233 234 237
250 249 250 252 247 251 247 244 244 239 236 237 240 243 244 244 238 241 242 244 257 240 219 231 227 234 237 224 202 205 209 213 220 226 228 232 236 239
255 252 251 252 258 256 250 245 246 244 240 241 248 251 249 248 243 235 225 221 236 238 230 224 223 238 239 236 207 200 205 210 216 225 232 233 237 242
254 252 250 255 258 254 249 245 244 245 243 247 249 250 241 236 233 228 220 215 221 233 223 211 205 205 229 232 221 208 207 211 216 226 236 239 237 239
254 255 254 257 254 254 254 252 253 250 239 239 243 243 237 228 225 229 225 218 217 225 207 204 208 217 221 222 234 230 222 223 223 228 233 237 238 239
255 256 256 257 255 257 254 259 264 255 238 233 234 234 231 229 223 225 227 237 245 237 225 222 222 216 216 231 236 223 227 230 234 239 241 236 236 237
262 265 270 267 262 256 256 261 257 247 239 232 232 236 234 227 221 215 212 212 241 271 249 246 230 220 219 226 229 231 240 243 237 237 243 246 245 241
266 268 267 268 270 275 272 260 249 249 247 244 246 245 236 221 220 217 214 204 210 265 275 255 236 220 222 228 226 233 229 224 224 231 242 253 250 242
275 270 268 260 262 269 275 272 265 256 252 254 252 245 237 227 228 217 211 209 218 227 242 244 218 208 229 223 227 231 229 236 239 241 243 254 256 249
273 264 263 262 264 268 275 279 271 267 265 271 256 236 236 232 234 235 220 212 211 219 227 223 198 185 203 279 245 232 231 237 246 248 248 254 259 253
267 264 264 265 266 266 270 271 276 287 285 272 261 241 235 236 227 227 225 222 222 221 224 221 219 206 213 232 233 218 233 234 237 245 250 256 263 265
293 283 283 282 279 274 276 280 283 287 283 277 267 249 247 238 225 228 231 231 228 231 228 225 228 227 225 230 234 256 243 242 241 249 264 277 277 280
291 288 285 283 286 282 278 279 281 282 287 283 266 256 252 243 237 241 235 227 236 230 232 250 262 249 224 187 214 248 276 259 258 254 260 269 272 265
283 280 282 284 282 285 285 281 285 286 282 278 248 232 249 251 244 244 236 226 230 232 252 269 252 204 216 214 227 247 272 292 282 275 267 259 258 257
284 281 281 284 280 281 284 283 284 282 280 279 254 220 233 247 251 245 244 241 226 220 220 214 222 231 232 222 230 246 259 274 274 284 287 288 279 279